sat.trackr.live / text

‹ back to catalog

NUSAT-48 (HENRIETTA LE*)

NORAD 60498 · 2024-149AG

PAYLOAD ACTIVE UNKNOWN

§ Identity

Operator
Country
ARGN
Launch date
2024-08-16
Launch site
AFWTR
Launch vehicle
Mass (kg)
RCS (m²)

External: N2YO · Heavens-Above · Gunter

§ Orbital elements

Epoch: 2026-09-22T17:35:16.798848Z

Period
94.12 min
Inclination
97.3864°
Eccentricity
0.0001656
Mean motion
15.29955593 rev/d
Perigee alt
474.8 km
Apogee alt
477.1 km
Semi-major
6,854.1 km
B*
2.0370e-4
RAAN
346.7118°
Arg perigee
295.8999°
Mean anomaly
64.2071°
Rev number
11,705

§ Raw data

NUSAT-48 (HENRIETTA LE*)1 60498U 24149AG  26265.73283332  .00005831  00000+0  20370-3 0  99902 60498  97.3864 346.7118 0001656 295.8999  64.2071 15.29955593117052

JSON: /api/v1/satellites/60498 · /tle

For live sub-satellite position, see the globe view (requires WebGL).

§ Visibility from observer

Set your observer location to see the next 7 days of passes ≥ 10°. The values pass through the URL so the page stays shareable.

No JS? Fill the form by hand. The geolocation button needs JavaScript.